EHI
0 1 1 1 0 0 0 0 1 2 2 1 0 0 0 0 1 1 0 0 0 0 0 0 0 0 0 0 0 0 0 0 0 0 0 0 0 0 0 0 0 0 0
0 1 2 1 0 0 0 0 0 2 2 2 0 0 0 1 2 2 1 0 0 0 0 0 0 0 0 0 0 0 0 0 0 0 0 0 0 0 0 0 0 0 0
0 1 3 2 1 0 0 1 1 2 2 2 1 0 0 1 2 2 1 0 0 0 0 0 0 0 0 0 0 0 0 0 0 0 0 0 0 0 0 0 0 0 0
0 1 2 3 2 1 0 1 1 1 1 1 1 1 1 1 1 1 0 0 0 0 0 0 0 0 0 0 0 0 0 0 0 0 0 0 0 0 0 0 0 0 0
0 1 2 3 3 1 0 1 1 0 0 1 1 2 2 2 2 2 1 1 0 0 0 0 0 0 0 0 0 0 0 0 0 0 0 0 0 0 0 0 0 0 0
0 1 2 3 3 2 0 0 0 0 0 0 1 2 1 1 2 3 3 2 1 0 0 0 0 0 0 0 0 0 0 0 0 0 0 0 0 0 0 0 0 0 0
0 1 2 3 3 1 0 0 0 0 0 1 1 1 0 0 1 2 2 2 2 1 1 0 0 0 0 1 1 0 0 0 0 0 0 0 0 0 0 0 0 0 0
0 0 1 1 1 0 0 0 0 0 0 1 1 0 0 0 0 1 1 1 1 1 1 0 0 0 0 1 1 0 0 0 0 0 0 0 0 0 0 0 0 0 0
0 0 0 0 0 0 0 0 0 0 0 0 0 0 0 0 0 1 2 1 1 0 0 0 0 0 0 1 1 0 0 0 0 0 0 0 0 0 0 0 0 0 0
0 0 0 0 0 0 0 0 0 0 0 0 0 0 0 0 0 1 1 1 0 0 0 0 0 0 0 0 0 0 0 0 0 0 0 0 0 0 0 0 0 0 0
0 0 0 0 0 0 0 0 0 0 0 0 0 0 0 0 0 0 0 0 0 0 0 0 0 0 0 0 0 1 0 0 0 0 0 0 0 0 0 0 0 0 0
1 0 0 0 0 0 0 0 0 0 0 0 0 0 0 0 0 0 0 0 0 0 0 0 0 0 0 0 0 0 0 0 0 0 0 0 0 0 0 0 0 0 0
2 1 0 0 0 0 0 0 0 0 0 0 0 0 0 0 0 0 0 0 0 0 1 1 0 0 0 0 0 0 0 0 0 0 0 0 0 0 0 0 0 0 0
2 1 0 0 0 0 0 0 0 0 0 0 0 0 0 0 0 0 0 0 0 0 1 1 0 0 0 0 0 0 0 0 0 0 0 0 0 0 0 0 0 0 0
2 1 0 0 0 0 0 0 0 0 0 0 0 0 0 0 0 0 0 0 0 0 1 1 0 0 0 0 0 0 0 0 0 0 0 0 0 0 0 0 0 0 0
1 1 1 0 0 0 0 0 0 0 0 0 0 0 0 0 0 0 0 0 0 0 0 0 0 0 0 0 0 0 0 0 0 0 0 0 0 0 0 0 0 0 0
2 2 1 0 1 1 0 0 0 0 0 0 0 0 0 0 0 0 0 0 0 0 0 0 0 0 0 0 0 0 0 0 0 0 0 0 0 0 0 0 0 0 0
3 3 2 1 1 1 0 0 0 0 0 0 0 0 0 0 0 0 0 0 0 0 0 0 0 0 0 0 0 0 1 1 0 0 0 0 0 0 0 0 0 0 0
2 2 1 0 1 1 0 0 0 0 0 0 0 0 0 0 0 0 0 0 0 0 0 0 0 0 0 0 0 1 2 1 0 0 0 0 0 0 0 0 0 0 0
1 1 0 0 0 0 0 0 0 0 0 0 0 0 0 0 0 0 0 0 0 0 0 0 0 0 0 0 0 1 2 1 0 0 0 0 0 0 0 0 0 0 0
0 0 0 0 0 0 0 0 0 0 0 0 0 0 0 0 0 0 0 0 0 0 0 0 0 0 0 0 1 2 1 0 0 0 0 0 0 0 0 0 0 0 0
0 0 0 0 0 0 0 0 0 0 0 0 0 0 0 0 0 0 0 0 0 0 0 0 0 0 0 1 2 2 1 0 0 0 0 0 0 0 0 0 0 0 0
0 0 0 0 0 0 0 0 0 0 0 0 0 0 0 0 0 0 0 0 0 0 0 0 0 0 0 1 2 3 2 1 0 0 0 0 0 0 0 0 0 0 0
0 0 0 0 0 0 0 0 0 0 0 0 0 0 0 0 0 0 0 0 0 0 0 0 0 0 0 0 1 2 2 1 0 0 0 0 0 0 0 0 0 0 0
0 0 0 0 0 0 0 0 0 0 0 0 0 0 0 0 0 0 0 0 0 0 0 0 0 0 0 0 0 1 1 1 0 0 0 0 0 0 0 0 0 1 1
0 0 0 0 0 0 0 0 0 0 0 0 0 0 0 0 0 0 0 0 0 0 0 0 0 0 0 0 0 1 2 2 1 0 0 0 0 0 0 0 1 2 2
Wind_Speed
5 5 7 4 3 3 3 3 3 3 3 3 3 3 4 4 4 4 3 2 2 1 1 0 0 0 1 1 2 2 3 2 3 2 2 2 2 2 1 1 3 2 5
5 5 7 3 3 2 2 2 1 1 1 2 3 3 3 3 4 4 4 3 3 2 2 2 1 1 1 0 1 1 2 2 2 2 2 2 2 1 1 1 4 3 3
6 5 6 3 2 2 1 1 1 2 2 3 3 3 4 4 4 5 4 4 4 4 4 3 3 2 2 1 1 2 2 2 3 3 5 3 3 2 0 1 1 1 1
6 5 4 4 2 2 2 1 1 2 3 4 4 4 4 5 5 5 5 6 6 6 5 5 4 4 3 3 2 2 2 3 3 5 5 1 1 5 0 1 0 1 1
6 5 6 4 3 3 2 2 2 2 2 4 5 5 5 5 5 6 7 7 7 7 6 6 6 5 5 4 3 3 3 3 4 8 3 2 1 3 1 1 0 1 0
6 4 6 4 4 3 3 3 3 2 2 3 4 5 5 5 5 6 7 8 8 8 8 8 8 7 6 5 5 4 4 4 7 4 3 2 1 3 1 1 1 1 1
5 4 5 5 4 4 3 3 3 3 3 3 3 4 5 5 5 5 6 7 8 8 9 9 9 8 7 7 6 5 5 5 8 4 4 3 1 1 2 2 2 2 2
5 4 5 6 5 5 4 4 4 4 4 4 4 4 5 5 5 5 6 7 7 7 8 9 9 8 8 7 7 6 6 8 7 5 4 3 2 1 3 3 2 2 2
4 4 3 3 3 4 4 5 5 5 5 4 4 4 4 4 4 5 5 5 6 6 7 7 8 8 8 7 8 7 6 6 8 5 5 2 2 3 4 3 3 3 3
4 3 3 2 3 3 2 5 5 5 5 5 4 4 4 4 5 4 6 4 5 6 6 6 6 7 6 7 7 7 6 7 8 6 4 1 2 4 4 4 4 4 4
3 2 2 2 2 3 3 3 2 2 2 4 3 2 5 5 4 4 2 2 4 5 5 5 5 6 6 7 8 7 7 6 5 5 4 3 1 5 5 5 5 5 4
2 1 1 2 2 3 3 3 3 3 3 4 4 4 4 4 4 5 1 3 4 4 5 5 6 6 7 5 7 8 6 7 6 5 2 4 4 6 6 5 6 6 5
1 1 1 2 2 3 3 3 3 3 3 4 5 4 4 4 3 3 3 2 3 5 4 4 6 5 4 4 4 5 6 5 5 4 3 5 5 6 6 6 6 7 6
2 0 1 2 3 3 4 3 3 3 3 3 4 6 4 3 4 3 3 3 3 2 3 4 3 4 5 5 6 7 6 5 5 4 2 5 6 6 6 6 7 8 8
2 1 1 3 4 4 3 3 3 3 4 4 4 5 5 4 4 4 3 2 4 3 3 3 4 4 5 5 5 6 6 7 6 6 3 6 6 6 7 6 7 9 8
3 2 0 2 3 4 3 3 3 4 3 4 4 5 5 4 4 4 4 3 4 4 4 4 5 4 4 4 5 5 6 6 7 6 5 6 8 7 7 7 8 9 9
3 2 0 2 3 4 4 4 3 3 4 4 4 5 5 5 5 5 4 4 4 4 5 4 5 4 4 4 5 5 5 6 6 7 6 4 5 8 8 7 8 9 9
3 1 0 1 3 3 3 4 3 3 4 4 4 4 6 6 6 5 4 4 4 4 4 3 4 4 4 4 4 3 4 4 6 6 5 6 5 4 7 8 7 8 9
3 2 1 1 2 3 3 3 3 3 3 4 4 4 5 6 6 5 4 4 5 4 4 4 3 4 4 3 4 4 3 3 4 5 6 6 5 5 4 6 7 7 8
4 2 1 0 2 2 2 3 2 3 3 3 3 4 5 5 6 5 4 5 5 3 3 4 4 3 4 3 4 3 2 3 3 3 4 4 4 5 4 5 6 7 8
4 3 1 1 1 1 2 3 3 3 3 3 4 5 5 5 6 5 5 5 4 4 4 4 4 4 3 3 3 3 3 3 2 2 3 3 4 3 4 4 4 4 6
4 3 2 1 1 2 2 3 3 4 4 4 4 4 5 5 5 5 5 4 3 3 4 4 3 3 3 2 3 3 3 4 3 2 2 2 3 2 3 4 5 5 5
4 3 2 0 0 1 2 2 3 2 3 2 3 3 5 5 5 5 5 5 4 4 3 4 4 4 3 2 2 2 2 2 1 2 2 2 2 2 3 3 5 5 5
5 3 2 1 1 0 2 2 4 4 4 5 4 4 5 4 5 4 5 5 4 4 4 4 3 3 4 3 2 2 2 2 2 1 2 2 1 2 2 3 4 5 5
5 4 2 1 1 0 2 2 4 4 4 3 4 5 5 4 4 4 4 4 4 3 3 4 3 4 3 3 2 2 2 2 3 2 2 1 1 2 2 3 3 3 4
5 4 3 2 1 1 2 3 3 4 4 5 5 5 4 3 3 4 4 4 4 3 3 3 3 4 3 3 3 3 2 2 2 2 2 2 1 1 2 2 2 2 3
Wind_Direction
141 139 121 145 145 144 145 147 155 163 169 175 179 186 195 197 197 197 198 200 208 219 219 194 216 328 27 49 51 43 36 30 26 24 20 28 33 31 34 10 278 146 92
126 131 123 143 134 130 126 118 130 181 209 220 214 212 216 216 221 224 224 227 231 238 248 253 260 277 286 327 2 7 11 12 358 357 324 220 149 37 19 348 329 42 80
119 122 132 122 114 111 100 66 18 353 333 302 275 248 243 241 240 243 242 245 246 249 250 253 257 260 266 276 301 323 334 338 339 333 278 253 140 117 10 348 6 64 80
112 115 101 89 71 62 48 31 360 348 339 321 308 291 272 261 259 260 258 254 250 250 251 252 254 258 263 269 277 293 307 315 319 292 263 306 346 94 16 310 264 118 100
107 107 92 74 65 57 40 28 14 357 341 325 322 316 299 283 273 268 264 258 255 254 256 257 255 253 257 263 270 279 291 293 292 270 303 320 325 83 318 294 241 194 141
108 101 91 74 73 66 54 43 26 7 356 336 325 321 315 301 287 278 271 264 261 260 257 256 253 251 253 254 262 271 279 280 265 266 290 281 278 92 293 255 235 225 196
110 99 92 74 58 53 45 35 15 5 348 329 318 319 317 308 293 285 280 274 268 265 263 262 259 251 249 248 253 261 267 271 269 273 267 272 27 61 280 247 227 224 217
109 105 96 92 66 51 34 20 9 0 347 332 319 313 311 303 291 282 275 272 271 272 270 266 264 260 254 249 249 252 258 268 257 262 263 270 66 284 271 245 231 230 219
111 102 85 83 96 95 58 26 9 360 351 343 335 317 306 299 291 289 277 267 266 271 271 267 263 261 254 250 248 248 250 257 272 262 258 249 97 274 266 246 233 232 218
117 100 80 63 33 16 46 60 16 7 359 348 341 335 312 264 245 252 261 263 268 265 268 269 261 261 258 251 251 248 247 247 250 255 253 179 123 265 264 243 229 226 210
128 96 59 31 26 9 354 32 341 350 356 299 274 280 274 277 277 244 274 294 284 275 265 260 256 256 256 239 239 248 243 245 243 255 253 96 216 262 259 241 223 218 209
147 104 43 7 5 357 349 345 330 331 341 324 331 322 302 306 302 299 162 240 262 262 246 241 250 247 245 240 218 221 237 237 247 242 212 138 238 253 253 238 218 210 206
147 114 11 344 356 348 345 337 336 331 333 323 332 324 306 301 289 287 289 233 241 251 258 229 234 236 236 237 244 236 241 247 244 243 191 163 232 246 246 232 212 203 200
179 182 358 333 338 343 344 342 320 326 333 333 334 331 319 313 305 310 296 309 296 280 282 274 260 244 241 239 238 242 237 236 247 249 189 171 230 241 241 226 209 201 198
189 209 338 328 335 342 349 324 324 335 333 333 332 322 325 313 309 309 296 302 295 296 280 274 269 261 249 241 242 242 246 239 240 239 201 179 223 238 245 231 211 202 200
200 209 246 317 336 327 328 326 340 333 326 321 328 325 323 318 312 309 300 300 300 299 298 286 274 269 259 246 247 245 247 251 243 235 236 194 204 224 238 235 214 201 202
202 210 280 316 324 325 330 336 332 325 326 326 328 324 324 319 313 309 308 306 304 297 288 284 284 277 264 247 237 239 240 244 251 243 236 237 210 202 215 227 215 200 201
204 211 199 310 316 330 329 320 324 328 332 326 324 322 322 319 316 312 307 307 308 302 294 285 278 274 268 260 246 235 238 232 241 246 242 230 227 217 197 203 209 200 201
207 212 225 315 318 330 330 312 320 324 330 324 326 330 323 319 315 312 311 309 310 303 296 292 289 284 278 272 258 236 236 239 242 240 241 237 224 222 213 172 195 199 199
205 208 207 257 314 337 328 320 327 323 324 326 330 333 328 318 316 311 300 303 306 297 294 291 291 281 280 276 265 251 230 232 235 243 244 232 233 224 219 199 192 190 194
195 206 191 269 353 339 343 328 329 334 329 330 334 336 322 316 315 308 302 305 303 300 298 293 291 277 268 275 265 242 214 208 220 224 236 232 224 227 223 210 211 202 188
189 198 211 234 348 350 357 331 327 324 320 332 327 330 331 327 321 307 303 299 293 289 286 287 283 286 277 259 268 259 224 189 194 203 210 219 227 214 228 221 213 206 210
188 189 193 243 197 5 343 323 313 307 290 314 334 338 336 330 325 313 307 303 298 289 285 281 274 269 275 261 260 275 266 232 182 175 199 214 215 220 220 230 225 212 203
180 179 193 181 250 14 306 323 332 326 333 341 333 333 328 332 331 321 307 300 298 295 285 274 266 259 258 257 244 257 281 327 276 197 178 186 220 232 234 229 227 221 208
170 175 188 186 219 302 314 328 304 320 330 329 327 331 327 341 336 327 316 308 304 296 289 284 279 266 253 257 259 251 245 242 256 267 227 196 221 228 241 237 224 225 216
170 175 184 200 195 242 278 282 302 324 321 324 329 333 330 336 335 341 325 311 304 297 283 276 269 259 258 255 255 252 250 250 244 249 252 239 241 252 249 235 223 214 217